Location: Newark
(49.1000°N, 0.4667°W)
Time: 17:44:07
(UTC+00:00)

M-CUBED/EXP-1 PRIME - Visible Passes

Search period start: 21 October 2021 00:00
Search period end: 31 October 2021 00:00
Orbit: 427 x 655 km, 101.7° (Epoch: 21 October)

Date Brightness Start Highest point End Pass type
(mag) Time Alt. Az. Time Alt. Az. Time Alt. Az.
21 Oct ? 05:47:09 10° NNE 05:50:44 87° WNW 05:54:34 10° SSW visible
22 Oct ? 05:40:02 10° NNE 05:43:39 74° ESE 05:47:30 10° SSW visible
23 Oct ? 05:32:55 10° NNE 05:36:31 58° ESE 05:40:23 10° S visible
24 Oct ? 05:25:51 10° NNE 05:29:24 46° ESE 05:33:12 10° S visible
25 Oct ? 05:18:47 10° NE 05:22:16 37° ESE 05:25:58 10° S visible
26 Oct ? 05:11:46 10° NE 05:15:07 30° ESE 05:18:39 10° SSE visible
27 Oct ? 05:04:46 10° NE 05:07:56 24° ESE 05:11:15 10° SSE visible
27 Oct ? 17:29:12 10° WSW 17:30:02 11° W 17:30:55 10° W visible
28 Oct ? 04:57:50 10° NE 05:00:44 20° E 05:03:47 10° SSE visible
28 Oct ? 17:21:01 10° SW 17:22:47 14° W 17:24:34 10° WNW visible
29 Oct ? 04:50:59 10° ENE 04:53:32 17° E 04:56:11 10° SE visible
29 Oct ? 17:13:16 10° SW 17:15:32 18° W 17:17:51 10° NW visible
30 Oct ? 04:44:16 10° ENE 04:46:18 14° E 04:48:24 10° SE visible
